Beaufort MCAS, SC

2:23 AM EDT on June 27, 2017 (GMT -0400)
Beaufort Marine Corps Air Station

Weather History for KNBC - November, 2012

Change the Weather History Date:

Friday, November 9, 2012

  Actual Average Record
Temperature  
Mean Temperature 52 °F -  
Max Temperature 66 °F 70 °F 83 °F (1986)
Min Temperature 37 °F 47 °F 26 °F (1967)
Degree Days  
Heating Degree Days 14    
Growing Degree Days 2 (Base 50)    
Moisture  
Dew Point 38 °F    
Average Humidity 61    
Maximum Humidity 86    
Minimum Humidity 26    
Precipitation  
Precipitation 0.00 in - - ()
Sea Level Pressure  
Sea Level Pressure 30.25 in    
Wind  
Wind Speed 3 mph (SSW)    
Max Wind Speed 6 mph    
Max Gust Speed -    
Visibility 10 miles    
Events      
Averages and records for this station are not official NWS values.
T = Trace of Precipitation, MM = Missing Value Source: NWS Daily Summary

Daily Weather History Graph

Daily Weather History Graph

Search for Another Location

Airport or City:

Trip Planner

Search our weather history database for the weather conditions in past years. The results will help you decide how hot, cold, wet, or windy it might be!

Date:

Astronomy

Nov. 09, 2012 Rise Set
Actual Time 6:47 AM EST 5:25 PM EST
Civil Twilight 6:21 AM EST 5:51 PM EST
Nautical Twilight 5:52 AM EST 6:20 PM EST
Astronomical Twilight 5:23 AM EST 6:49 PM EST
Moon 2:00 AM EST (11/9) 2:24 PM EST (11/9)
Length of Visible Light 11h 29m
Length of Day
10h 38m
Waning Crescent, 23% of the Moon is Illuminated
Nov 9
Waning Crescent
Nov 13
New
Nov 20
First Quarter
Nov 28
Full
Dec 6
Last Quarter

Hourly Weather History & Observations

Time (EST) Temp. Windchill Dew Point Humidity Pressure Visibility Wind Dir Wind Speed Gust Speed Precip Events Conditions
12:56 AM 43.0 °F 40.3 °F 35.1 °F 74% 30.17 in 10.0 mi WSW 4.6 mph - N/A   Clear
1:56 AM 44.1 °F - 35.1 °F 71% 30.17 in 10.0 mi Calm Calm - N/A   Clear
2:56 AM 46.9 °F - 37.0 °F 68% 30.18 in 10.0 mi NNW 5.8 mph - N/A   Clear
3:56 AM 46.9 °F - 37.9 °F 71% 30.19 in 10.0 mi NNW 4.6 mph - N/A   Clear
4:56 AM 46.0 °F 43.9 °F 37.0 °F 71% 30.22 in 10.0 mi North 4.6 mph - N/A   Clear
5:56 AM 39.0 °F - 34.0 °F 82% 30.23 in 10.0 mi Calm Calm - N/A   Clear
6:56 AM 37.0 °F - 33.1 °F 86% 30.25 in 10.0 mi Calm Calm - N/A   Clear
7:56 AM 42.1 °F - 37.0 °F 82% 30.27 in 10.0 mi Calm Calm - N/A   Clear
8:56 AM 54.0 °F - 37.0 °F 53% 30.29 in 10.0 mi Variable 3.5 mph - N/A   Clear
9:56 AM 57.9 °F - 34.0 °F 41% 30.31 in 10.0 mi East 5.8 mph - N/A   Clear
10:56 AM 61.0 °F - 33.1 °F 35% 30.31 in 10.0 mi SE 5.8 mph - N/A   Clear
11:56 AM 64.0 °F - 28.0 °F 26% 30.28 in 10.0 mi Calm Calm - N/A   Clear
12:56 PM 66.0 °F - 30.9 °F 27% 30.26 in 10.0 mi Calm Calm - N/A   Clear
1:56 PM 66.9 °F - 35.1 °F 31% 30.24 in 10.0 mi SSE 3.5 mph - N/A   Clear
2:56 PM 66.9 °F - 37.0 °F 33% 30.23 in 10.0 mi Calm Calm - N/A   Clear
3:56 PM 64.9 °F - 42.1 °F 43% 30.23 in 10.0 mi South 3.5 mph - N/A   Clear
4:56 PM 63.0 °F - 45.0 °F 52% 30.22 in 10.0 mi South 3.5 mph - N/A   Clear
5:56 PM 57.9 °F - 44.1 °F 60% 30.24 in 10.0 mi Calm Calm - N/A   Clear
6:56 PM 53.1 °F - 41.0 °F 64% 30.25 in 10.0 mi Calm Calm - N/A   Clear
7:56 PM 50.0 °F - 41.0 °F 71% 30.26 in 10.0 mi Calm Calm - N/A   Clear
8:56 PM 48.0 °F - 42.1 °F 80% 30.27 in 10.0 mi WSW 3.5 mph - N/A   Clear
9:56 PM 46.9 °F - 42.1 °F 83% 30.28 in 10.0 mi Calm Calm - N/A   Clear
10:56 PM 45.0 °F 43.5 °F 41.0 °F 86% 30.28 in 10.0 mi WSW 3.5 mph - N/A   Clear
11:56 PM 46.0 °F - 42.1 °F 86% 30.28 in 10.0 mi Calm Calm - N/A   Clear